Weather History for Port Isabel, TX

Change the Weather History Date:

Sunday, March 10, 2013

  Actual Average Record
Temperature  
Mean Temperature 72 °F -  
Max Temperature 77 °F - - ()
Min Temperature 66 °F - - ()
Cooling Degree Days 8    
Growing Degree Days 22 (Base 50)    
Moisture  
Dew Point 59 °F    
Average Humidity 66    
Maximum Humidity 83    
Minimum Humidity 36    
Precipitation  
Precipitation 0.00 in - - ()
Sea Level Pressure  
Sea Level Pressure 29.80 in    
Wind  
Wind Speed 21 mph (North)    
Max Wind Speed 30 mph    
Max Gust Speed 43 mph    
Visibility 8 miles    
Events Rain    
T = Trace of Precipitation, MM = Missing Value Source: NWS Daily Summary

Daily Weather History Graph

Daily Weather History Graph

Search for Another Location

Airport:

Trip Planner

Search our weather history database for the weather conditions in past years. The results will help you decide how hot, cold, wet, or windy it might be!

Date:

Astronomy

Mar. 10, 2013 Rise Set
Actual Time 7:43 AM CDT 7:35 PM CDT
Civil Twilight 7:20 AM CDT 7:58 PM CDT
Nautical Twilight 6:53 AM CDT 8:25 PM CDT
Astronomical Twilight 6:27 AM CDT 8:52 PM CDT
Moon 6:40 AM CDT (3/10) 6:45 PM CDT (3/10)
Length of Visible Light 12h 38m
Length of Day
11h 52m
Waning Crescent, 2% of the Moon is Illuminated
Mar 10
Waning Crescent
Mar 11
New
Mar 19
First Quarter
Mar 27
Full
Apr 2
Last Quarter

Hourly Weather History & Observations

Time (CDT) Temp. Dew Point Humidity Pressure Visibility Wind Dir Wind Speed Gust Speed Precip Events Conditions
12:01 AM 73.4 °F 68.0 °F 83% 29.71 in 7.0 mi SSE 21.9 mph 35.7 mph 0.00 in Rain Light Rain
12:44 AM 73.4 °F 68.0 °F 83% 29.68 in 7.0 mi South 26.5 mph 35.7 mph 0.00 in Rain Light Rain
12:53 AM 73.9 °F 66.9 °F 79% 29.68 in 8.0 mi South 26.5 mph 38.0 mph 0.00 in Rain Light Rain
1:16 AM 73.4 °F 68.0 °F 83% 29.67 in 8.0 mi South 26.5 mph 35.7 mph 0.00 in Rain Light Rain
1:53 AM 73.9 °F 68.0 °F 82% 29.64 in 7.0 mi South 26.5 mph 41.4 mph 0.00 in Rain Light Rain
3:53 AM 73.9 °F 68.0 °F 82% 29.62 in 8.0 mi South 25.3 mph 35.7 mph 0.00 in Rain Light Rain
4:06 AM 73.4 °F 68.0 °F 83% 29.63 in 8.0 mi South 25.3 mph 38.0 mph 0.00 in Rain Light Rain
4:53 AM 73.0 °F 66.9 °F 81% 29.62 in 8.0 mi South 21.9 mph 34.5 mph 0.00 in Rain Light Rain
5:53 AM 73.0 °F 66.9 °F 81% 29.62 in 7.0 mi South 20.7 mph 29.9 mph 0.00 in   Clear
7:53 AM 72.0 °F 66.0 °F 81% 29.75 in 6.0 mi WSW 4.6 mph - N/A   Haze
8:10 AM 71.6 °F 66.2 °F 83% 29.76 in 6.0 mi West 4.6 mph - N/A   Haze
8:53 AM 73.9 °F 66.9 °F 79% 29.78 in 7.0 mi Calm Calm - N/A   Overcast
9:53 AM 75.0 °F 66.9 °F 76% 29.80 in 7.0 mi SW 4.6 mph - 0.00 in   Overcast
10:53 AM 75.9 °F 66.0 °F 71% 29.81 in 8.0 mi WNW 8.1 mph - 0.00 in   Mostly Cloudy
11:04 AM 77.0 °F 66.2 °F 69% 29.81 in 8.0 mi WNW 10.4 mph - N/A   Mostly Cloudy
11:39 AM 75.2 °F 64.4 °F 69% 29.83 in 9.0 mi NNW 25.3 mph 31.1 mph 0.00 in Rain Light Rain
11:53 AM 71.1 °F 62.1 °F 73% 29.84 in 9.0 mi NNW 27.6 mph 34.5 mph 0.00 in Rain Light Rain
12:07 PM 71.6 °F 59.0 °F 64% 29.85 in 10.0 mi North 26.5 mph 35.7 mph 0.00 in Rain Light Rain
12:53 PM 71.1 °F 51.1 °F 49% 29.87 in 8.0 mi North 27.6 mph 40.3 mph 0.00 in Rain Light Rain
1:01 PM 71.6 °F 51.8 °F 50% 29.87 in 8.0 mi North 27.6 mph 39.1 mph 0.00 in Rain Light Rain
1:53 PM 73.9 °F 51.1 °F 45% 29.86 in 8.0 mi North 29.9 mph 38.0 mph 0.00 in Rain Light Rain
2:53 PM 75.0 °F 50.0 °F 41% 29.84 in 9.0 mi North 29.9 mph 40.3 mph 0.00 in Rain Light Rain
3:53 PM 75.0 °F 46.0 °F 36% 29.83 in 9.0 mi North 28.8 mph 42.6 mph 0.00 in Rain Light Rain
4:53 PM 73.9 °F 46.0 °F 37% 29.81 in 9.0 mi NNE 29.9 mph 40.3 mph 0.00 in Rain Light Rain
5:53 PM 73.0 °F 46.0 °F 38% 29.83 in 9.0 mi NNE 25.3 mph 35.7 mph 0.00 in Rain Light Rain
6:53 PM 69.1 °F 52.0 °F 54% 29.85 in 9.0 mi NE 21.9 mph 28.8 mph 0.00 in Rain Light Rain
7:53 PM 69.1 °F 53.1 °F 57% 29.86 in 10.0 mi NNE 13.8 mph 27.6 mph 0.00 in Rain Light Rain
8:53 PM 68.0 °F 55.0 °F 63% 29.90 in 10.0 mi NNE 17.3 mph 24.2 mph 0.00 in Rain Light Rain
9:53 PM 68.0 °F 55.9 °F 65% 29.95 in 9.0 mi NNE 15.0 mph - 0.00 in   Overcast
10:53 PM 69.1 °F 54.0 °F 58% 30.00 in 9.0 mi NNE 15.0 mph 20.7 mph N/A   Overcast
11:53 PM 68.0 °F 52.0 °F 56% 30.01 in 9.0 mi NNE 13.8 mph 25.3 mph N/A   Overcast
12:53 AM 66.9 °F 46.9 °F 49% 30.04 in 10.0 mi North 20.7 mph 29.9 mph 0.00 in Rain Light Rain